TimeCST,TemperatureF,Dew PointF,Humidity,Sea Level PressureIn,VisibilityMPH,Wind Direction,Wind SpeedMPH,Gust SpeedMPH,PrecipitationIn,Events,Conditions,WindDirDegrees,DateUTC
12:00 AM,70,59,60,29.90,12,East,11.5,,,,Scattered Clouds,80,2013-05-09 06:00:00
12:00 AM,69.8,59.0,68,30.10,6.2,East,11.5,-,N/A,,Partly Cloudy,80,2013-05-09 06:00:00
1:00 AM,69.8,59.0,68,30.08,6.2,East,9.2,-,N/A,,Partly Cloudy,80,2013-05-09 07:00:00
2:00 AM,69.8,59.0,68,30.06,6.2,East,13.8,-,N/A,,Partly Cloudy,80,2013-05-09 08:00:00
3:00 AM,68,58,63,29.88,12,NE,11.5,,,,Scattered Clouds,50,2013-05-09 09:00:00
3:00 AM,68.0,59.0,73,30.05,6.2,NE,11.5,-,N/A,,Partly Cloudy,50,2013-05-09 09:00:00
4:00 AM,68.0,57.2,68,30.05,-9999.0,ENE,13.8,-,N/A,,Clear,60,2013-05-09 10:00:00
5:00 AM,68.0,57.2,68,30.05,-9999.0,ENE,13.8,-,N/A,,Clear,60,2013-05-09 11:00:00
6:00 AM,69,58,60,29.94,12,ENE,12.7,,,,Clear,70,2013-05-09 12:00:00
6:00 AM,69.8,59.0,68,30.07,-9999.0,ENE,12.7,-,N/A,,Clear,70,2013-05-09 12:00:00
7:00 AM,73.4,59.0,61,30.09,-9999.0,ENE,8.1,-,N/A,,Clear,70,2013-05-09 13:00:00
8:00 AM,78.8,55.4,44,30.10,-9999.0,ESE,9.2,-,N/A,,Clear,110,2013-05-09 14:00:00
9:00 AM,82,56,30,29.94,12,ESE,10.4,,,,Clear,110,2013-05-09 15:00:00
9:00 AM,82.4,55.4,39,30.09,-9999.0,ESE,10.4,-,N/A,,Clear,110,2013-05-09 15:00:00
10:00 AM,84.2,55.4,37,30.09,-9999.0,ESE,10.4,-,N/A,,Clear,120,2013-05-09 16:00:00
11:00 AM,84.2,62.6,48,30.08,6.2,SSW,8.1,-,N/A,,Scattered Clouds,200,2013-05-09 17:00:00
12:00 PM,83,65,44,29.90,12,SSW,8.1,,,,Scattered Clouds,200,2013-05-09 18:00:00
12:00 PM,84.2,64.4,51,30.08,6.2,WSW,16.1,-,N/A,,Scattered Clouds,240,2013-05-09 18:00:00
1:00 PM,84.2,66.2,55,30.07,6.2,WSW,12.7,-,N/A,,Scattered Clouds,240,2013-05-09 19:00:00
1:29 PM,78.8,66.2,65,30.06,6.2,SW,12.7,-,N/A,Rain,Rain,230,2013-05-09 19:29:00
2:00 PM,68.0,66.2,94,30.05,1.2,South,6.9,-,N/A,Rain-Thunderstorm,Thunderstorms and Rain,190,2013-05-09 20:00:00
2:35 PM,68.0,66.2,94,30.05,5.0,North,5.8,-,N/A,Rain,Light Rain,360,2013-05-09 20:35:00
3:00 PM,69,67,89,29.92,5,ESE,2.3,,,Rain,Light Rain,120,2013-05-09 21:00:00
3:00 PM,68.0,66.2,94,30.05,-9999.0,North,-9999.0,-,N/A,Rain,Light Rain,0,2013-05-09 21:00:00
4:00 PM,71.6,68.0,88,30.05,6.2,Calm,Calm,-,N/A,,Mostly Cloudy,0,2013-05-09 22:00:00
5:00 PM,73.4,68.0,83,30.06,6.2,Calm,Calm,-,N/A,,Mostly Cloudy,0,2013-05-09 23:00:00
6:00 PM,73,67,77,29.90,9,WSW,2.3,,,,Partly Cloudy,240,2013-05-10 00:00:00
6:00 PM,73.4,68.0,83,30.07,6.2,WSW,2.3,-,N/A,,Mostly Cloudy,240,2013-05-10 00:00:00
7:00 PM,71.6,68.0,88,30.08,6.2,South,4.6,-,N/A,,Mostly Cloudy,190,2013-05-10 01:00:00
8:00 PM,71.6,64.4,78,30.12,6.2,East,3.5,-,N/A,,Mostly Cloudy,100,2013-05-10 02:00:00
9:00 PM,71,67,84,29.97,12,NNW,3.5,,,,Scattered Clouds,340,2013-05-10 03:00:00
9:00 PM,71.6,68.0,88,30.14,6.2,NNW,3.5,-,N/A,,Scattered Clouds,340,2013-05-10 03:00:00
10:00 PM,69.8,66.2,88,30.14,6.2,WNW,3.5,-,N/A,Fog,Scattered Clouds,290,2013-05-10 04:00:00
11:00 PM,69.8,66.2,88,30.15,3.1,South,3.5,-,N/A,,Scattered Clouds,170,2013-05-10 05:00:00